Regional Weather Roundup
Issued by NWS Cleveland, OH

Home | Current Version | Previous Version | Graphics & Text | Print | Product List | Glossary On
Versions: 1 2 3 4 5 6 7 8 9 10 11 12 13 14 15 16 17 18 19 20 21 22 23 24 25 26 27 28 29 30 31 32 33 34 35 36 37 38 39 40 41 42 43 44 45 46 47 48 49 50
000
ASUS41 KCLE 051002
RWRCLE
OHIO REGIONAL WEATHER ROUNDUP
NATIONAL WEATHER SERVICE CLEVELAND, OH
600 AM EDT SUN JUL 05 2015

NOTE: "FAIR" INDICATES FEW OR NO CLOUDS BELOW 12,000 FEET WITH NO
SIGNIFICANT WEATHER AND/OR OBSTRUCTIONS TO VISIBILITY.

OHZ001>008-015>018-024>027-034-035-043-044-051100-
   NORTHWEST OHIO

CITY           SKY/WX    TMP DP  RH WIND       PRES   REMARKS
DEFIANCE       CLEAR     59  57  93 CALM      30.11R FOG
FINDLAY        PTCLDY    62  58  86 CALM      30.10R
TOLEDO EXPRESS CLEAR     55  54  96 CALM      30.10R
TOLEDO EXEC    CLEAR     60  53  77 CALM      30.11R
LIMA           LGT RAIN  58  56  93 CALM      30.11R FOG
$$

OHZ009>014-019>023-028>033-038-089-051100-
   NORTHEAST OHIO

CITY           SKY/WX    TMP DP  RH WIND       PRES   REMARKS
CLE-HOPKINS    CLEAR     57  52  83 CALM      30.13R
CLE-LAKEFRONT  CLEAR     62  51  67 S7        30.10R
CUY CO. ARPT   NOT AVBL
LORAIN-ELYRIA  PTCLDY    54  53  97 SW3       30.12R FOG
ASHTABULA      CLEAR     55  53  93 CALM      30.13R FOG
AKRON-CANTON   PTCLDY    55  50  83 NE3       30.13R
WOOSTER        PTCLDY    53  51  93 CALM      30.13R FOG
MANSFIELD      PTCLDY    56  55  97 S3        30.12R
YOUNGSTOWN     PTCLDY    53  51  93 E6        30.12R
$$

OHZ042-051>053-060>062-070>072-077>081-051100-
  SOUTHWEST OHIO

CITY           SKY/WX    TMP DP  RH WIND       PRES   REMARKS
CINC-COVINGTON CLOUDY    67  59  75 E3        30.08R
CINC-LUNKEN    MOCLDY    62  62 100 CALM      30.09R FOG
HAMILTON       MOCLDY    61  60  97 CALM      30.09R FOG
DAYTON         MOCLDY    63  59  87 CALM      30.11R
WRIGHT-PAT AFB NOT AVBL
DAYTON GENERAL MOCLDY    61  58  90 NE6       30.08R
WILMINGTON     CLOUDY    60  55  83 CALM      30.09R
$$

OHZ036-037-039>041-045>050-054>059-063>069-073>076-082>088-051100-
  CENTRAL AND SOUTHEAST OHIO

CITY           SKY/WX    TMP DP  RH WIND       PRES   REMARKS
COLUMBUS       CLOUDY    63  55  75 CALM      30.10R
OSU AIRPORT    MOCLDY    59  56  89 CALM      30.11R FOG
BOLTON FIELD   NOT AVBL
RICKENBACK AFB NOT AVBL
NEWARK         FOG       56  55  97 CALM      30.11R VSB 1/2
MARION         PTCLDY    58  56  93 CALM      30.12R FOG
LANCASTER      MOCLDY    57  55  93 CALM      30.10R FOG
ZANESVILLE     NOT AVBL
NEW PHILLY     MOCLDY    55  54  96 CALM      30.12R FOG
$$



USA.gov is the U.S. government's official web portal to all federal, state and local government web resources and services.